AD4UU Weather Reports


time (UTC)temp
F
wind
direction
speed
knots
gust
knots
rain 1hr
in
rain 24hr
in
rain mn
in
humidity
%
barometer
mb
20260510194030 88 251 7.8 15.6 0.00 0.00 0.00 67 1016.5
20260510193534 88 271 7.0 14.8 0.00 0.00 0.00 65 1016.6
20260510193049 89 243 8.7 14.8 0.00 0.00 0.00 65 1016.6
20260510192531 89 242 7.8 13.0 0.00 0.00 0.00 65 1016.7
20260510192030 88 231 6.1 13.0 0.00 0.00 0.00 62 1016.6
20260510191549 88 244 7.0 13.0 0.00 0.00 0.00 63 1016.7
20260510191030 88 242 7.0 13.0 0.00 0.00 0.00 65 1016.7
20260510190530 89 244 6.1 14.8 0.00 0.00 0.00 63 1016.8
20260510190048 89 223 6.1 14.8 0.00 0.00 0.00 61 1016.7
20260510185530 89 242 6.1 13.9 0.00 0.00 0.00 62 1016.8
20260510185029 88 230 7.0 19.1 0.00 0.00 0.00 62 1016.9
20260510184556 87 239 7.8 19.1 0.00 0.00 0.00 60 1016.9
20260510184031 88 255 10.4 19.1 0.00 0.00 0.00 60 1017.0
20260510183530 88 235 7.0 14.8 0.00 0.00 0.00 63 1016.8
20260510183047 89 269 8.7 14.8 0.00 0.00 0.00 65 1017.0
20260510182530 89 267 8.7 16.5 0.00 0.00 0.00 62 1017.0
20260510182030 89 254 11.3 16.5 0.00 0.00 0.00 62 1017.0
20260510181548 88 270 8.7 17.4 0.00 0.00 0.00 66 1017.1
20260510181028 89 314 7.0 17.4 0.00 0.00 0.00 66 1017.1
20260510180529 89 266 9.6 19.1 0.00 0.00 0.00 62 1017.1
20260510180051 90 251 12.2 19.1 0.00 0.00 0.00 59 1017.2
20260510175530 90 246 10.4 16.5 0.00 0.00 0.00 61 1017.2
20260510175030 89 266 10.4 16.5 0.00 0.00 0.00 61 1017.2
20260510174551 90 234 7.8 16.5 0.00 0.00 0.00 62 1017.4
20260510174030 90 244 10.4 16.5 0.00 0.00 0.00 62 1017.3
20260510173531 90 250 7.8 14.8 0.00 0.00 0.00 59 1017.3
20260510173047 90 246 7.8 13.0 0.00 0.00 0.00 60 1017.2
20260510172530 90 235 7.0 14.8 0.00 0.00 0.00 63 1017.1
20260510172032 89 255 7.8 14.8 0.00 0.00 0.00 63 1017.2
20260510171546 89 234 7.0 13.9 0.00 0.00 0.00 65 1017.4
20260510171030 89 269 8.7 17.4 0.00 0.00 0.00 69 1017.5
20260510170533 89 290 10.4 17.4 0.00 0.00 0.00 63 1017.6
20260510170047 88 252 8.7 15.6 0.00 0.00 0.00 62 1017.5
20260510165530 88 224 8.7 15.6 0.00 0.00 0.00 64 1017.5
20260510165030 88 226 7.0 14.8 0.00 0.00 0.00 65 1017.5
20260510164541 88 259 7.8 13.9 0.00 0.00 0.00 68 1017.6
20260510164029 87 265 7.8 13.9 0.00 0.00 0.00 68 1017.8
20260510163531 87 262 6.1 13.9 0.00 0.00 0.00 67 1017.7
20260510163051 88 248 4.3 13.0 0.00 0.00 0.00 67 1017.8
20260510162530 88 254 5.2 13.0 0.00 0.00 0.00 67 1017.6
20260510162031 89 260 7.0 12.2 0.00 0.00 0.00 65 1017.8
20260510161548 88 261 5.2 12.2 0.00 0.00 0.00 68 1017.7
20260510161029 87 263 6.1 13.0 0.00 0.00 0.00 69 1017.7
20260510160530 87 255 7.8 13.0 0.00 0.00 0.00 71 1017.9
20260510160050 86 259 7.0 13.0 0.00 0.00 0.00 70 1017.8
20260510155534 86 303 6.1 12.2 0.00 0.00 0.00 72 1017.8
20260510155029 84 243 4.3 8.7 0.00 0.00 0.00 75 1017.9
20260510154542 84 238 4.3 8.7 0.00 0.00 0.00 76 1017.9
20260510154030 84 274 2.6 9.6 0.00 0.00 0.00 76 1018.0
20260510153529 84 261 6.1 9.6 0.00 0.00 0.00 75 1018.0
20260510153044 85 242 4.3 9.6 0.00 0.00 0.00 73 1017.8
20260510152533 85 296 5.2 9.6 0.00 0.00 0.00 73 1017.9
20260510152029 85 251 4.3 9.6 0.00 0.00 0.00 73 1017.9
20260510151542 85 309 3.5 10.4 0.00 0.00 0.00 72 1017.7
20260510151031 86 246 5.2 10.4 0.00 0.00 0.00 72 1017.8
20260510150531 86 240 3.5 10.4 0.00 0.00 0.00 72 1017.9
20260510150054 86 185 3.5 8.7 0.00 0.00 0.00 71 1017.7
20260510145531 85 238 3.5 8.7 0.00 0.00 0.00 73 1017.8
20260510145031 85 234 3.5 8.7 0.00 0.00 0.00 74 1017.8
20260510144547 84 255 4.3 8.7 0.00 0.00 0.00 74 1017.8
20260510144032 84 227 3.5 11.3 0.00 0.00 0.00 75 1017.9
20260510143531 84 263 4.3 11.3 0.00 0.00 0.00 75 1017.8
20260510143046 84 271 6.1 8.7 0.00 0.00 0.00 76 1017.8
20260510142531 84 209 3.5 8.7 0.00 0.00 0.00 77 1017.7
20260510142030 84 223 2.6 7.8 0.00 0.00 0.00 77 1017.8
20260510141555 84 219 2.6 7.8 0.00 0.00 0.00 78 1017.7
20260510141031 83 217 1.7 7.0 0.00 0.00 0.00 78 1017.6
20260510140531 83 217 3.5 7.0 0.00 0.00 0.00 78 1017.7
20260510140055 83 251 2.6 7.8 0.00 0.00 0.00 78 1017.6
20260510135531 83 203 2.6 10.4 0.00 0.00 0.00 78 1017.7
20260510135031 83 215 3.5 10.4 0.00 0.00 0.00 78 1017.7
20260510134550 83 210 2.6 7.8 0.00 0.00 0.00 78 1017.7
20260510134031 82 120 2.6 8.7 0.00 0.00 0.00 80 1017.6
20260510133529 82 200 4.3 8.7 0.00 0.00 0.00 79 1017.6
20260510133047 81 190 2.6 5.2 0.00 0.00 0.00 80 1017.6
20260510132531 81 203 2.6 6.1 0.00 0.00 0.00 80 1017.5
20260510132033 81 186 1.7 6.1 0.00 0.00 0.00 81 1017.5
20260510131549 81 144 3.5 6.1 0.00 0.00 0.00 80 1017.4
20260510131030 80 215 1.7 5.2 0.00 0.00 0.00 82 1017.4
20260510130531 80 217 3.5 6.1 0.00 0.00 0.00 82 1017.3
20260510130049 79 196 1.7 6.1 0.00 0.00 0.00 84 1017.4
20260510125530 78 216 2.6 6.1 0.00 0.00 0.00 84 1017.4
20260510125031 78 173 1.7 5.2 0.00 0.00 0.00 85 1017.5
20260510124554 77 202 1.7 4.3 0.00 0.00 0.00 87 1017.5
20260510124032 77 213 0.9 6.1 0.00 0.00 0.00 88 1017.4
20260510123531 76 219 1.7 6.1 0.00 0.00 0.00 89 1017.4
20260510123050 76 220 0.9 4.3 0.00 0.00 0.00 90 1017.2
20260510122529 75 232 0.9 4.3 0.00 0.00 0.00 91 1017.1
20260510122030 75 173 0.0 3.5 0.00 0.00 0.00 92 1017.0
20260510121549 74 261 0.9 4.3 0.00 0.00 0.00 93 1017.0
20260510121031 73 184 0.9 4.3 0.00 0.00 0.00 94 1017.0
20260510120532 73 160 0.9 5.2 0.00 0.00 0.00 94 1016.8
20260510120051 73 186 1.7 6.1 0.00 0.00 0.00 95 1016.6
20260510115530 72 208 2.6 6.1 0.00 0.00 0.00 96 1016.6
20260510115030 72 190 1.7 4.3 0.00 0.00 0.00 96 1016.5
20260510114545 72 190 0.9 4.3 0.00 0.00 0.00 97 1016.6
20260510114031 71 217 1.7 4.3 0.00 0.00 0.00 97 1016.4
20260510113532 71 202 0.9 4.3 0.00 0.00 0.00 98 1016.4
20260510113047 71 186 0.9 4.3 0.00 0.00 0.00 98 1016.3
20260510112529 70 221 0.0 2.6 0.00 0.00 0.00 98 1016.2
20260510112031 70 0 0.0 0.0 0.00 0.00 0.00 98 1016.1
20260510111540 69 0 0.0 0.0 0.00 0.00 0.00 97 1016.1
20260510111030 69 0 0.0 0.0 0.00 0.00 0.00 97 1016.1
20260510110530 69 0 0.0 0.0 0.00 0.00 0.00 96 1016.1
20260510110050 69 0 0.0 0.0 0.00 0.00 0.00 96 1015.9
20260510105531 69 0 0.0 0.0 0.00 0.00 0.00 96 1015.9
20260510105030 69 0 0.0 0.0 0.00 0.00 0.00 96 1015.8
20260510104548 69 0 0.0 0.0 0.00 0.00 0.00 96 1015.6
20260510104029 69 0 0.0 0.0 0.00 0.00 0.00 96 1015.6
20260510103531 69 0 0.0 0.0 0.00 0.00 0.00 96 1015.7
20260510103057 69 0 0.0 0.0 0.00 0.00 0.00 96 1015.5
20260510102530 69 0 0.0 0.0 0.00 0.00 0.00 95 1015.5
20260510102030 69 0 0.0 0.9 0.00 0.00 0.00 95 1015.3
20260510101550 69 0 0.0 0.9 0.00 0.00 0.00 95 1015.4
20260510101029 69 0 0.0 0.9 0.00 0.00 0.00 94 1015.4
20260510100530 70 79 0.0 0.9 0.00 0.00 0.00 94 1015.2
20260510100044 71 0 0.0 0.9 0.00 0.00 0.00 95 1015.1
20260510095531 71 0 0.0 0.9 0.00 0.00 0.00 95 1015.0
20260510095029 70 0 0.0 0.0 0.00 0.00 0.00 95 1015.0
20260510094549 70 0 0.0 0.0 0.00 0.00 0.00 95 1015.0
20260510094031 70 0 0.0 0.0 0.00 0.00 0.00 94 1015.0
20260510093530 70 0 0.0 0.0 0.00 0.00 0.00 94 1015.0
20260510093048 71 0 0.0 0.0 0.00 0.00 0.00 94 1014.8
20260510092531 71 0 0.0 0.0 0.00 0.00 0.00 94 1014.8
20260510092029 71 0 0.0 0.0 0.00 0.00 0.00 94 1014.7
20260510091551 71 0 0.0 0.0 0.00 0.00 0.00 94 1014.9
20260510091033 71 0 0.0 0.0 0.00 0.00 0.00 94 1014.6
20260510090530 71 0 0.0 0.0 0.00 0.00 0.00 93 1014.6
20260510090059 71 0 0.0 0.0 0.00 0.00 0.00 93 1014.6
20260510085530 71 0 0.0 0.0 0.00 0.00 0.00 92 1014.5
20260510085030 72 0 0.0 0.9 0.00 0.00 0.00 92 1014.4
20260510084545 72 0 0.0 0.9 0.00 0.00 0.00 92 1014.2
20260510084033 72 0 0.0 0.0 0.00 0.00 0.00 92 1014.3
20260510083530 72 0 0.0 3.5 0.00 0.00 0.00 92 1014.1
20260510083045 73 0 0.0 3.5 0.00 0.00 0.00 92 1014.2
20260510082529 73 140 0.0 5.2 0.00 0.00 0.00 92 1014.1
20260510082033 73 168 0.0 5.2 0.00 0.00 0.00 92 1014.1
20260510081554 73 0 1.7 5.2 0.00 0.00 0.00 91 1014.1
20260510081031 73 153 1.7 5.2 0.00 0.00 0.00 91 1014.1
20260510080532 73 182 0.9 5.2 0.00 0.00 0.00 91 1014.1
20260510080050 73 168 0.9 5.2 0.00 0.00 0.00 91 1014.2
20260510075530 73 0 0.9 4.3 0.00 0.00 0.00 91 1014.3
20260510075030 73 0 0.9 7.0 0.00 0.00 0.00 91 1014.3
20260510074547 73 155 0.9 7.8 0.00 0.00 0.00 91 1014.1
20260510074031 73 169 1.7 7.8 0.00 0.00 0.00 91 1014.2
20260510073533 73 145 1.7 6.1 0.00 0.00 0.00 91 1014.2
20260510073049 73 163 1.7 7.0 0.00 0.00 0.00 91 1014.1
20260510072531 73 172 2.6 8.7 0.00 0.00 0.00 92 1014.1
20260510072033 73 140 4.3 8.7 0.00 0.00 0.00 92 1014.0
20260510071546 73 177 3.5 7.0 0.00 0.00 0.00 92 1014.1
20260510071029 73 157 0.9 7.8 0.00 0.00 0.00 92 1014.1
20260510070529 73 117 1.7 7.8 0.00 0.00 0.00 91 1014.2
20260510070048 73 166 1.7 6.1 0.00 0.00 0.00 91 1014.2
20260510065529 73 117 2.6 7.8 0.00 0.00 0.00 91 1014.4
20260510065030 73 140 2.6 7.8 0.00 0.00 0.00 91 1014.3
20260510064541 73 146 3.5 8.7 0.00 0.00 0.00 91 1014.4
20260510064031 73 146 3.5 8.7 0.00 0.00 0.00 91 1014.4
20260510063529 72 182 3.5 7.0 0.00 0.00 0.00 91 1014.4
20260510063048 72 167 1.7 7.0 0.00 0.00 0.00 91 1014.5
20260510062530 72 165 2.6 7.0 0.00 0.00 0.00 90 1014.7
20260510062032 72 139 2.6 7.0 0.00 0.00 0.00 90 1014.7
20260510061557 72 208 1.7 3.5 0.00 0.00 0.00 90 1014.8
20260510061032 72 151 0.9 3.5 0.00 0.00 0.00 89 1014.9
20260510060531 72 145 0.9 3.5 0.00 0.00 0.00 89 1014.9
20260510060050 72 0 0.9 2.6 0.00 0.00 0.00 89 1015.1
20260510055531 72 117 0.0 2.6 0.00 0.00 0.00 89 1015.2
20260510055031 72 94 0.0 1.7 0.00 0.00 0.00 89 1015.3
20260510054557 72 0 0.0 1.7 0.00 0.00 0.00 89 1015.3
20260510054030 72 0 0.0 1.7 0.00 0.00 0.00 88 1015.4
20260510053533 72 130 0.0 2.6 0.00 0.00 0.00 88 1015.5
20260510053045 72 141 0.9 5.2 0.00 0.00 0.00 88 1015.5
20260510052531 72 113 1.7 5.2 0.00 0.00 0.00 89 1015.6
20260510052031 72 119 0.0 0.9 0.00 0.00 0.00 89 1015.7
20260510051548 72 140 0.0 0.9 0.00 0.00 0.00 89 1015.7
20260510051031 72 135 0.0 0.9 0.00 0.00 0.00 89 1015.7
20260510050532 72 0 0.0 0.9 0.00 0.00 0.00 88 1015.8
20260510050054 72 0 0.0 0.9 0.00 0.00 0.00 88 1015.9
20260510045531 72 0 0.0 0.9 0.00 0.00 0.00 88 1015.9
20260510045031 72 95 0.0 0.9 0.00 0.00 0.00 88 1016.0
20260510044548 72 0 0.0 0.0 0.00 0.00 0.00 88 1016.1
20260510044031 72 0 0.0 0.0 0.00 0.00 0.00 88 1016.0
20260510043531 72 0 0.0 0.0 0.00 0.00 0.00 88 1016.1
20260510043050 72 0 0.0 0.0 0.00 0.00 0.00 88 1016.3
20260510042529 72 0 0.0 0.0 0.00 0.00 0.00 88 1016.2
20260510042029 72 0 0.0 0.0 0.00 0.00 0.00 87 1016.3
20260510041601 73 0 0.0 0.0 0.00 0.00 0.00 87 1016.3
20260510041031 73 0 0.0 0.0 0.00 0.00 0.00 86 1016.3
20260510040529 73 0 0.0 0.0 0.00 0.00 0.00 86 1016.3
20260510040045 73 0 0.0 0.0 0.00 0.00 0.00 86 1016.3
20260510035530 73 0 0.0 0.9 0.00 0.00 0.00 86 1016.4
20260510035031 73 0 0.0 0.9 0.00 0.00 0.00 86 1016.4
20260510034545 74 0 0.0 0.9 0.00 0.00 0.00 86 1016.3
20260510034030 74 119 0.0 0.9 0.00 0.00 0.00 86 1016.4
20260510033531 74 0 0.0 0.9 0.00 0.00 0.00 86 1016.3
20260510033052 74 132 0.0 0.9 0.00 0.00 0.00 86 1016.4
20260510032530 74 0 0.0 0.9 0.00 0.00 0.00 85 1016.5
20260510032030 74 0 0.0 0.9 0.00 0.00 0.00 85 1016.5
20260510031555 74 0 0.0 1.7 0.00 0.00 0.00 85 1016.3
20260510031030 74 110 0.0 1.7 0.00 0.00 0.00 85 1016.3
20260510030531 74 0 0.0 1.7 0.00 0.00 0.00 85 1016.2
20260510030049 74 0 0.0 0.9 0.00 0.00 0.00 85 1016.3
20260510025530 74 0 0.0 1.7 0.00 0.00 0.00 85 1016.2
20260510025030 74 0 0.0 2.6 0.00 0.00 0.00 85 1016.0
20260510024604 74 136 0.0 2.6 0.00 0.00 0.00 85 1016.2
20260510024032 74 105 0.9 2.6 0.00 0.00 0.00 85 1016.1
20260510023530 74 116 0.0 1.7 0.00 0.00 0.00 85 1015.9
20260510023055 74 121 0.0 2.6 0.00 0.00 0.00 85 1015.9
20260510022533 74 101 0.9 2.6 0.00 0.00 0.00 85 1015.9
20260510022031 74 108 0.0 1.7 0.00 0.00 0.00 85 1015.8
20260510021548 74 101 0.0 1.7 0.00 0.00 0.00 85 1015.8
20260510021030 74 115 0.0 1.7 0.00 0.00 0.00 85 1015.8
20260510020531 74 116 0.0 1.7 0.00 0.00 0.00 85 1015.7
20260510020047 74 101 0.0 2.6 0.00 0.00 0.00 85 1015.7
20260510015534 74 113 0.9 2.6 0.00 0.00 0.00 84 1015.5
20260510015030 74 98 0.0 1.7 0.00 0.00 0.00 84 1015.4
20260510014608 74 79 0.9 1.7 0.00 0.00 0.00 84 1015.4
20260510014029 74 76 0.0 0.9 0.00 0.00 0.00 85 1015.4
20260510013533 74 0 0.0 1.7 0.00 0.00 0.00 85 1015.4
20260510013059 74 0 0.0 2.6 0.00 0.00 0.00 84 1015.4
20260510012530 74 85 0.9 3.5 0.00 0.00 0.00 84 1015.3
20260510012030 74 0 0.9 3.5 0.00 0.00 0.00 84 1015.3
20260510011554 74 0 0.0 0.9 0.00 0.00 0.00 85 1015.2
20260510011029 73 0 0.0 0.9 0.00 0.00 0.00 85 1015.3
20260510010530 73 88 0.0 0.9 0.00 0.00 0.00 85 1015.2
20260510010051 73 0 0.0 0.9 0.00 0.00 0.00 84 1015.3
20260510005531 73 0 0.0 0.9 0.00 0.00 0.00 84 1015.0
20260510005031 73 20 0.0 0.9 0.00 0.00 0.00 84 1014.9
20260510004555 73 0 0.0 0.9 0.00 0.00 0.00 85 1014.9
20260510004030 73 0 0.0 1.7 0.00 0.00 0.00 84 1015.0
20260510003531 73 0 0.0 1.7 0.00 0.00 0.00 84 1014.7
20260510003051 74 9 0.0 1.7 0.00 0.00 0.00 84 1014.7
20260510002532 74 327 0.0 2.6 0.00 0.00 0.00 84 1014.7
20260510002030 74 338 0.9 6.1 0.00 0.00 0.00 83 1014.7
20260510001546 74 321 0.9 6.1 0.00 0.00 0.00 83 1014.7
20260510001031 74 338 1.7 8.7 0.00 0.00 0.00 82 1014.6
20260510000530 74 11 3.5 8.7 0.00 0.00 0.00 82 1014.7
20260510000048 75 346 3.5 8.7 0.00 0.00 0.00 82 1014.6
20260509235531 75 19 1.7 8.7 0.00 0.00 0.00 82 1014.7
20260509235030 75 26 2.6 7.0 0.00 0.00 0.00 82 1014.7
20260509234546 75 31 2.6 7.0 0.00 0.00 0.00 82 1014.6
20260509234029 75 338 2.6 9.6 0.00 0.00 0.00 82 1014.6
20260509233529 75 346 3.5 9.6 0.00 0.00 0.00 82 1014.6
20260509233043 75 342 3.5 9.6 0.00 0.00 0.00 81 1014.5
20260509232533 75 23 3.5 7.0 0.00 0.00 0.00 82 1014.4
20260509232031 75 52 1.7 8.7 0.00 0.00 0.00 81 1014.5
20260509231558 75 311 1.7 11.3 0.00 0.00 0.00 81 1014.5
20260509231027 75 335 5.2 11.3 0.00 0.00 0.00 81 1014.7
20260509230531 75 298 4.3 10.4 0.00 0.00 0.00 81 1014.7
20260509230048 75 329 5.2 12.2 0.00 0.00 0.00 81 1014.6
20260509225531 75 326 7.0 12.2 0.00 0.00 0.00 81 1014.6
20260509225030 76 326 3.5 11.3 0.00 0.00 0.00 82 1014.7
20260509224546 76 317 3.5 13.9 0.00 0.00 0.00 82 1014.7
20260509224030 77 311 7.8 13.9 0.00 0.00 0.00 81 1014.7
20260509223531 78 336 4.3 13.0 0.00 0.00 0.00 80 1014.5
20260509223051 79 342 5.2 13.9 0.00 0.00 0.00 78 1014.4
20260509222535 80 294 4.3 13.9 0.00 0.00 0.00 77 1014.5
20260509222035 81 297 7.8 12.2 0.00 0.00 0.00 75 1014.3
20260509221549 82 290 4.3 12.2 0.00 0.00 0.00 74 1014.2
20260509221030 82 291 3.5 8.7 0.00 0.00 0.00 73 1014.2
20260509220531 82 269 4.3 10.4 0.00 0.00 0.00 73 1014.1
20260509220045 82 291 4.3 10.4 0.00 0.00 0.00 72 1014.0
20260509215533 82 309 6.1 10.4 0.00 0.00 0.00 72 1013.8
20260509215031 82 297 4.3 9.6 0.00 0.00 0.00 72 1013.8
20260509214550 83 311 4.3 9.6 0.00 0.00 0.00 72 1013.8
20260509214031 83 294 4.3 9.6 0.00 0.00 0.00 72 1013.7
20260509213530 83 292 2.6 8.7 0.00 0.00 0.00 72 1013.7
20260509213052 83 296 3.5 8.7 0.00 0.00 0.00 72 1013.7
20260509212533 84 291 3.5 8.7 0.00 0.00 0.00 71 1013.6
20260509212031 84 294 3.5 7.0 0.00 0.00 0.00 72 1013.5
20260509211555 84 292 3.5 7.0 0.00 0.00 0.00 71 1013.5
20260509211031 84 294 3.5 9.6 0.00 0.00 0.00 71 1013.4
20260509210533 84 271 4.3 9.6 0.00 0.00 0.00 70 1013.4
20260509210054 84 301 4.3 10.4 0.00 0.00 0.00 70 1013.4
20260509205531 84 263 6.1 11.3 0.00 0.00 0.00 69 1013.5
20260509205033 84 300 4.3 11.3 0.00 0.00 0.00 69 1013.5
20260509204547 84 263 3.5 10.4 0.00 0.00 0.00 68 1013.5
20260509204030 84 256 5.2 9.6 0.00 0.00 0.00 68 1013.6
20260509203530 85 297 5.2 9.6 0.00 0.00 0.00 67 1013.5
20260509203044 85 258 5.2 9.6 0.00 0.00 0.00 68 1013.5
20260509202534 85 279 4.3 9.6 0.00 0.00 0.00 69 1013.4
20260509202031 85 294 4.3 9.6 0.00 0.00 0.00 69 1013.5
20260509201542 85 290 3.5 9.6 0.00 0.00 0.00 70 1013.5
20260509201030 84 302 5.2 10.4 0.00 0.00 0.00 71 1013.5
20260509200529 84 298 4.3 10.4 0.00 0.00 0.00 71 1013.5
20260509200053 85 313 6.1 12.2 0.00 0.00 0.00 70 1013.5
20260509195534 85 284 4.3 12.2 0.00 0.00 0.00 69 1013.5
20260509195031 84 264 7.8 12.2 0.00 0.00 0.00 68 1013.5
20260509194546 85 267 5.2 13.0 0.00 0.00 0.00 68 1013.6